Weather in Krasnaya Gorka

Russia / Republic of Bashkortostan     55°11′32″N   56°40′10″E
temp.,
°C
wind,
m/s
gust,
m/s
humid.,
%
clouds,
%
prec.,
mm/h
press.,
hPa
HPBL,
m
2 march, tue
tue223:00−18wsw129995 0.1 101821
02:00−19ssw22100100 0.1 101740
05:00−20s35100100 0.1 1016150
08:00−21s410100100 0.1 1014319
11:00−17s71293100 0.1 1011463
14:00−13s71394100 0.4 1007587
17:00−12s71393100 1.3 1004708
20:00−11s61395100 1.3 1003711
3 march, wed
wed323:00−9s61395100 3.0 1001719
02:00−6s61395100 2.1 998678
05:00−4ssw61296100 3.9 998550
08:00−5sw51096100 0.9 997405
11:00−3sw5894100 1.4 999618
14:00−2wsw5792100 0.6 999678
17:00−3sw5795100 1.0 999520
20:00−5sw4997100 0.8 1000405
4 march, thu
thu423:00−5sw41096100 1.4 1001463
02:00−7sw4996100 0.7 1000336
05:00−7w4996100 1.6 1002451
08:00−10wnw41095100 0.3 1003362
11:00−11wsw3695100 0.4 1005363
14:00−7sw5893100 0.5 1005582
17:00−6sw5994100 1.0 1005718
20:00−7ssw61195100 0.8 1005667
5 march, fri
fri523:00−7ssw71495100 1.9 1003806
02:00−6ssw91695100 2.3 1000890
05:00−3sw91696100 5.6 9971122
08:00−2sw91796100 3.6 9971159
11:00−1sw101696100 6.4 999973
14:00−1wsw81398100 1.6 1001995
17:00−2wsw61378100 2.2 1004979
20:00−5w2787100 0.0 1006223
6 march, sat
sat623:00−7w2393100 0.0 100886
02:00−12wnw1296100 0.0 101021
05:00−13ssw0096100 0.0 101120
08:00−13e1195100 0.0 101120
11:00−7e2395100 0.3 1007203
14:00−3se51096100 2.3 1001518
17:000ssw81499100 7.9 9971042
20:000sw91698100 3.9 9951106